Location: Bavegemberg
(50.9500°N, 3.8833°E)
Time: 19:25:19
(UTC+00:00)

Cosmos 1908 - Pass Details

Date: 23 May 2024
Orbit: 466 x 481 km, 82.5° (Epoch: 14 June)

Event Time Altitude Azimuth Distance (km) Brightness Sun altitude
Rises 00:10:59 0° 340° (NNW) 2,518 7.8 -18.1°
Reaches altitude 10° 00:13:15 10° 330° (NNW) 1,635 6.5 -18.1°
Maximum altitude 00:16:22 29° 269° (W) 891 4.3 -18.0°
Enters shadow 00:16:54 28° 251° (WSW) 920 4.2 -18.0°
